Weather History for Gustavus, AK

Change the Weather History Date:

Sunday, March 4, 2012

  Actual Average Record
Temperature  
Mean Temperature 30 °F -  
Max Temperature 32 °F 38 °F 45 °F (1950)
Min Temperature 28 °F 26 °F -5 °F (1956)
Degree Days  
Heating Degree Days 35    
Moisture  
Dew Point 26 °F    
Average Humidity 82    
Maximum Humidity 93    
Minimum Humidity 64    
Precipitation  
Precipitation 0.00 in - - ()
Sea Level Pressure  
Sea Level Pressure 29.82 in    
Wind  
Wind Speed 6 mph (SSE)    
Max Wind Speed 15 mph    
Max Gust Speed 16 mph    
Visibility 6 miles    
Events      
Averages and records for this station are not official NWS values.
T = Trace of Precipitation, MM = Missing Value Source: NWS Daily Summary

Daily Weather History Graph

Daily Weather History Graph

Search for Another Location

Airport:

Trip Planner

Search our weather history database for the weather conditions in past years. The results will help you decide how hot, cold, wet, or windy it might be!

Date:

Astronomy

Mar. 04, 2012 Rise Set
Actual Time 6:48 AM AKST 5:41 PM AKST
Civil Twilight 6:08 AM AKST 6:21 PM AKST
Nautical Twilight 5:22 AM AKST 7:07 PM AKST
Astronomical Twilight 4:35 AM AKST 7:54 PM AKST
Moon 1:19 PM AKST (3/4) 4:59 AM AKST (3/4)
Length of Visible Light 12h 13m
Length of Day
10h 53m
Waxing Gibbous, 85% of the Moon is Illuminated
Mar 4
Waxing Gibbous
Mar 8
Full
Mar 14
Last Quarter
Mar 22
New
Mar 30
First Quarter

Hourly Weather History & Observations

Time (AKST) Temp. Windchill Dew Point Humidity Pressure Visibility Wind Dir Wind Speed Gust Speed Precip Events Conditions
12:16 AM 32.0 °F 26.4 °F 26.6 °F 80% 29.82 in 10.0 mi South 5.8 mph - N/A   Overcast
12:36 AM 30.2 °F 25.4 °F 26.6 °F 86% 29.82 in 2.5 mi SW 4.6 mph - N/A   Overcast
12:56 AM 30.2 °F 25.4 °F 26.6 °F 86% 29.81 in 1.8 mi SW 4.6 mph - N/A   Overcast
1:16 AM 30.2 °F - 28.4 °F 93% 29.81 in 1.5 mi Calm Calm - N/A   Overcast
1:36 AM 30.2 °F - 28.4 °F 93% 29.80 in 3.0 mi Calm Calm - N/A   Overcast
1:56 AM 30.2 °F - 28.4 °F 93% 29.80 in 2.0 mi Calm Calm - N/A   Overcast
2:16 AM 32.0 °F 26.4 °F 28.4 °F 87% 29.79 in 8.0 mi SE 5.8 mph - N/A   Overcast
2:36 AM 32.0 °F 27.5 °F 28.4 °F 87% 29.78 in 8.0 mi SSE 4.6 mph - N/A   Overcast
2:56 AM 32.0 °F 26.4 °F 28.4 °F 87% 29.77 in 2.5 mi SSE 5.8 mph - N/A   Overcast
3:16 AM 32.0 °F 26.4 °F 28.4 °F 87% 29.77 in 1.8 mi SSW 5.8 mph - N/A   Overcast
3:36 AM 32.0 °F 27.5 °F 28.4 °F 87% 29.76 in 1.8 mi SSE 4.6 mph - N/A   Overcast
3:56 AM 32.0 °F 26.4 °F 28.4 °F 87% 29.76 in 3.0 mi South 5.8 mph - N/A   Overcast
4:16 AM 32.0 °F 26.4 °F 28.4 °F 87% 29.75 in 10.0 mi South 5.8 mph - N/A   Overcast
4:36 AM 32.0 °F 25.6 °F 28.4 °F 87% 29.75 in 5.0 mi South 6.9 mph - N/A   Overcast
4:56 AM 30.2 °F 25.4 °F 26.6 °F 86% 29.75 in 1.8 mi WSW 4.6 mph - N/A   Overcast
5:16 AM 30.2 °F 22.6 °F 26.6 °F 86% 29.75 in 2.5 mi WSW 8.1 mph - N/A   Overcast
5:36 AM 30.2 °F 24.3 °F 26.6 °F 86% 29.75 in 2.0 mi WSW 5.8 mph - N/A   Overcast
5:56 AM 30.2 °F 25.4 °F 26.6 °F 86% 29.75 in 10.0 mi SSW 4.6 mph - N/A   Overcast
6:16 AM 30.2 °F 26.7 °F 24.8 °F 80% 29.74 in 10.0 mi ENE 3.5 mph - N/A   Overcast
6:36 AM 28.4 °F - 24.8 °F 86% 29.76 in 10.0 mi Calm Calm - N/A   Overcast
6:56 AM 28.4 °F - 26.6 °F 93% 29.76 in 10.0 mi Calm Calm - N/A   Mostly Cloudy
7:16 AM 28.4 °F 24.6 °F 26.6 °F 93% 29.76 in 10.0 mi ENE 3.5 mph - N/A   Partly Cloudy
7:36 AM 28.4 °F 21.2 °F 24.8 °F 86% 29.75 in 10.0 mi SE 6.9 mph - N/A   Scattered Clouds
7:56 AM 30.2 °F 21.3 °F 24.8 °F 80% 29.76 in 8.0 mi SE 10.4 mph - N/A   Mostly Cloudy
8:16 AM 30.2 °F 19.3 °F 24.8 °F 80% 29.76 in 10.0 mi SE 15.0 mph - N/A   Overcast
8:36 AM 30.2 °F 22.6 °F 24.8 °F 80% 29.77 in 8.0 mi SSE 8.1 mph - N/A   Overcast
8:56 AM 28.4 °F 19.7 °F 24.8 °F 86% 29.79 in 0.8 mi SSE 9.2 mph 16.1 mph N/A   Overcast
9:16 AM 30.2 °F 21.3 °F 26.6 °F 86% 29.80 in 1.0 mi SE 10.4 mph - N/A   Overcast
9:36 AM 30.2 °F 21.3 °F 26.6 °F 86% 29.81 in 0.8 mi SE 10.4 mph - N/A   Overcast
9:56 AM 30.2 °F 20.2 °F 28.4 °F 93% 29.81 in 6.0 mi SE 12.7 mph - N/A   Overcast
10:16 AM 30.2 °F 20.8 °F 26.6 °F 86% 29.82 in 5.0 mi SE 11.5 mph - N/A   Overcast
10:36 AM 30.2 °F 21.3 °F 26.6 °F 86% 29.82 in 3.0 mi SE 10.4 mph - N/A   Overcast
10:56 AM 30.2 °F 23.4 °F 26.6 °F 86% 29.83 in 10.0 mi SSE 6.9 mph - N/A   Overcast
11:16 AM 32.0 °F 23.6 °F 24.8 °F 75% 29.84 in 5.0 mi SW 10.4 mph - N/A   Overcast
11:36 AM 28.4 °F 21.2 °F 24.8 °F 86% 29.85 in 0.8 mi SW 6.9 mph - N/A   Overcast
11:56 AM 30.2 °F 23.4 °F 26.6 °F 86% 29.85 in 4.0 mi SE 6.9 mph - N/A   Mostly Cloudy
12:16 PM 32.0 °F 23.0 °F 24.8 °F 75% 29.85 in 10.0 mi SE 11.5 mph - N/A   Mostly Cloudy
12:36 PM 32.0 °F 24.2 °F 24.8 °F 75% 29.86 in 10.0 mi SSE 9.2 mph - N/A   Mostly Cloudy
12:56 PM 30.2 °F 20.8 °F 24.8 °F 80% 29.86 in 2.5 mi SE 11.5 mph - N/A   Overcast
1:16 PM 30.2 °F 20.8 °F 24.8 °F 80% 29.87 in 10.0 mi SSE 11.5 mph - N/A   Overcast
1:36 PM 30.2 °F 21.9 °F 24.8 °F 80% 29.87 in 2.5 mi SSE 9.2 mph - N/A   Overcast
1:56 PM 30.2 °F - 24.8 °F 80% 29.88 in 2.5 mi Calm Calm - N/A   Overcast
2:16 PM 30.2 °F 26.7 °F 24.8 °F 80% 29.88 in 10.0 mi South 3.5 mph - N/A   Overcast
2:36 PM 30.2 °F 26.7 °F 24.8 °F 80% 29.89 in 9.0 mi West 3.5 mph - N/A   Overcast
2:56 PM 30.2 °F 23.4 °F 24.8 °F 80% 29.89 in 10.0 mi SSE 6.9 mph - N/A   Overcast
3:16 PM 32.0 °F 26.4 °F 21.2 °F 64% 29.89 in 5.0 mi SE 5.8 mph - N/A   Overcast
3:36 PM 32.0 °F 26.4 °F 24.8 °F 75% 29.90 in 10.0 mi SSE 5.8 mph - N/A   Overcast
3:56 PM 32.0 °F 25.6 °F 23.0 °F 69% 29.90 in 10.0 mi SE 6.9 mph - N/A   Mostly Cloudy
4:16 PM 32.0 °F 25.6 °F 23.0 °F 69% 29.91 in 10.0 mi SSE 6.9 mph - N/A   Mostly Cloudy
4:36 PM 32.0 °F 24.8 °F 21.2 °F 64% 29.91 in 10.0 mi SE 8.1 mph - N/A   Mostly Cloudy
4:56 PM 30.2 °F 23.4 °F 21.2 °F 69% 29.92 in 10.0 mi SSE 6.9 mph - N/A   Mostly Cloudy
5:16 PM 30.2 °F 21.9 °F 23.0 °F 75% 29.92 in 10.0 mi SSE 9.2 mph - N/A   Mostly Cloudy
5:36 PM 30.2 °F 25.4 °F 21.2 °F 69% 29.92 in 10.0 mi SSE 4.6 mph - N/A   Mostly Cloudy
5:56 PM 30.2 °F 24.3 °F 23.0 °F 75% 29.93 in 10.0 mi SSE 5.8 mph - N/A   Overcast
6:16 PM 28.4 °F 22.2 °F 21.2 °F 74% 29.93 in 10.0 mi East 5.8 mph - N/A   Overcast
6:56 PM 28.4 °F 24.6 °F 21.2 °F 74% 29.94 in 10.0 mi ESE 3.5 mph - N/A   Overcast
7:16 PM 28.4 °F - 21.2 °F 74% 29.95 in 10.0 mi Calm Calm - N/A   Mostly Cloudy
7:36 PM 26.6 °F - 21.2 °F 80% 29.96 in 10.0 mi Calm Calm - N/A   Mostly Cloudy
7:56 PM 24.8 °F - 21.2 °F 86% 29.96 in 10.0 mi Calm Calm - N/A   Overcast
8:16 PM 24.8 °F - 21.2 °F 86% 29.97 in 10.0 mi Calm Calm - N/A   Scattered Clouds
8:36 PM 24.8 °F - 19.4 °F 80% 29.97 in 10.0 mi Calm Calm - N/A   Clear
8:56 PM 21.2 °F - 21.2 °F 100% 29.97 in 2.5 mi Calm Calm - N/A   Clear
9:16 PM 21.2 °F - 17.6 °F 86% 29.98 in 1.0 mi Calm Calm - N/A   Clear
9:36 PM 21.2 °F - 17.6 °F 86% 29.98 in 0.8 mi Calm Calm - N/A   Unknown
9:56 PM 19.4 °F - 17.6 °F 93% 29.99 in 0.8 mi Calm Calm - N/A   Unknown
10:16 PM 19.4 °F - 15.8 °F 86% 30.00 in 1.0 mi Calm Calm - N/A   Clear
10:36 PM 19.4 °F - 15.8 °F 86% 30.00 in 1.2 mi Calm Calm - N/A   Clear
10:56 PM 17.6 °F - 12.2 °F 79% 30.00 in 0.8 mi Calm Calm - N/A   Unknown
11:16 PM 17.6 °F 12.3 °F 12.2 °F 79% 30.01 in 3.0 mi North 3.5 mph - N/A   Clear
11:36 PM 17.6 °F - 12.2 °F 79% 30.02 in 1.8 mi Calm Calm - N/A   Clear
11:56 PM 17.6 °F - 12.2 °F 79% 30.02 in 4.0 mi Calm Calm - N/A   Clear